Deer Park, WA

6:07 AM PST on January 17, 2017 (GMT -0800)
Deer Park

Weather History for KDEW - November, 2013

Change the Weather History Date:

Wednesday, November 6, 2013

  Actual Average Record
Temperature  
Mean Temperature 34 °F 37 °F  
Max Temperature 36 °F 46 °F 61 °F (2006)
Min Temperature 31 °F 28 °F 1 °F (2003)
Degree Days  
Heating Degree Days 31 28  
Month to date heating degree days 182 163  
Since 1 July heating degree days 1162 1231  
Cooling Degree Days 0 0  
Month to date cooling degree days 0 0  
Year to date cooling degree days 310 187  
Moisture  
Dew Point 31 °F    
Average Humidity 91    
Maximum Humidity 100    
Minimum Humidity 82    
Precipitation  
Precipitation 0.00 in 0.10 in 0.26 in (2016)
Month to date precipitation 0.63 0.61  
Year to date precipitation 15.38 16.67  
Sea Level Pressure  
Sea Level Pressure 30.32 in    
Wind  
Wind Speed 5 mph (NNE)    
Max Wind Speed 13 mph    
Max Gust Speed 16 mph    
Visibility 5 miles    
Events Fog    
T = Trace of Precipitation, MM = Missing Value Source: NWS Daily Summary

Daily Weather History Graph

Daily Weather History Graph

Search for Another Location

Airport or City:

Trip Planner

Search our weather history database for the weather conditions in past years. The results will help you decide how hot, cold, wet, or windy it might be!

Date:

Astronomy

Nov. 06, 2013 Rise Set
Actual Time 6:42 AM PST 4:23 PM PST
Civil Twilight 6:09 AM PST 4:56 PM PST
Nautical Twilight 5:32 AM PST 5:33 PM PST
Astronomical Twilight 4:56 AM PST 6:09 PM PST
Moon 10:08 AM PST (11/6) 7:26 PM PST (11/6)
Length of Visible Light 10h 46m
Length of Day
9h 40m
Waxing Crescent, 14% of the Moon is Illuminated
Nov 6
Waxing Crescent
Nov 9
First Quarter
Nov 17
Full
Nov 25
Last Quarter
Dec 2
New

Hourly Weather History & Observations

Time (PST) Temp. Windchill Dew Point Humidity Pressure Visibility Wind Dir Wind Speed Gust Speed Precip Events Conditions
12:15 AM 33.8 °F - 32.0 °F 93% 30.18 in 0.8 mi Calm Calm - N/A   Mist
12:53 AM 33.1 °F 30.0 °F 32.0 °F 96% 30.25 in 0.8 mi WSW 3.5 mph - N/A   Mist
1:53 AM 33.1 °F - 32.0 °F 96% 30.27 in 0.5 mi Calm Calm - N/A Fog Fog
2:32 AM 32.0 °F - 32.0 °F 100% 30.22 in 1.0 mi Calm Calm - N/A   Overcast
2:42 AM 33.8 °F - 32.0 °F 93% 30.22 in 0.8 mi Calm Calm - N/A   Overcast
2:50 AM 33.8 °F - 32.0 °F 93% 30.23 in 1.0 mi Calm Calm - N/A   Overcast
2:53 AM 33.1 °F - 32.0 °F 96% 30.29 in 1.0 mi Calm Calm - N/A   Overcast
3:39 AM 32.0 °F - 30.2 °F 93% 30.23 in 0.5 mi Calm Calm - N/A Fog Fog
3:53 AM 32.0 °F - 30.9 °F 96% 30.30 in 0.2 mi Calm Calm - N/A Fog Fog
4:14 AM 32.0 °F - 32.0 °F 100% 30.25 in 0.2 mi Calm Calm - N/A Fog Fog
4:24 AM 32.0 °F - 32.0 °F 100% 30.25 in 0.5 mi Calm Calm - N/A Fog Fog
4:35 AM 32.0 °F - 32.0 °F 100% 30.25 in 0.5 mi Calm Calm - N/A Fog Fog
4:53 AM 32.0 °F - 32.0 °F 100% 30.32 in 1.0 mi Calm Calm - N/A   Overcast
5:05 AM 32.0 °F - 30.2 °F 93% 30.26 in 2.0 mi Calm Calm - N/A   Overcast
5:12 AM 32.0 °F - 30.2 °F 93% 30.26 in 1.0 mi Calm Calm - N/A   Overcast
5:53 AM 30.9 °F - 30.0 °F 96% 30.33 in 0.8 mi Calm Calm - N/A   Overcast
6:33 AM 32.0 °F - 30.2 °F 93% 30.28 in 1.2 mi Calm Calm - N/A   Overcast
6:53 AM 32.0 °F - 30.9 °F 96% 30.35 in 2.5 mi Calm Calm - N/A   Overcast
7:02 AM 32.0 °F - 30.2 °F 93% 30.30 in 3.0 mi Calm Calm - N/A   Overcast
7:20 AM 32.0 °F - 30.2 °F 93% 30.30 in 2.5 mi Calm Calm - N/A   Overcast
7:38 AM 32.0 °F 28.7 °F 30.2 °F 93% 30.32 in 3.0 mi NNW 3.5 mph - N/A   Overcast
7:48 AM 32.0 °F - 30.2 °F 93% 30.32 in 2.5 mi Calm Calm - N/A   Overcast
7:53 AM 32.0 °F 28.7 °F 30.9 °F 96% 30.39 in 3.0 mi NW 3.5 mph - N/A   Overcast
8:53 AM 33.1 °F - 30.9 °F 92% 30.40 in 10.0 mi Calm Calm - N/A   Overcast
9:53 AM 35.1 °F 32.2 °F 30.9 °F 85% 30.41 in 10.0 mi NNE 3.5 mph - N/A   Overcast
10:53 AM 36.0 °F 32.1 °F 30.0 °F 79% 30.42 in 10.0 mi NNE 4.6 mph - N/A   Overcast
11:53 AM 36.0 °F 33.3 °F 30.9 °F 82% 30.42 in 10.0 mi East 3.5 mph - N/A   Overcast
12:53 PM 36.0 °F 32.1 °F 30.9 °F 82% 30.41 in 10.0 mi NE 4.6 mph - N/A   Overcast
1:53 PM 36.0 °F 32.1 °F 30.9 °F 82% 30.41 in 10.0 mi NNE 4.6 mph - N/A   Overcast
2:43 PM 35.6 °F 29.9 °F 30.2 °F 81% 30.35 in 10.0 mi North 6.9 mph - N/A   Overcast
2:53 PM 36.0 °F 30.3 °F 30.9 °F 82% 30.41 in 10.0 mi North 6.9 mph - N/A   Overcast
3:53 PM 35.1 °F 30.1 °F 30.9 °F 85% 30.40 in 6.0 mi North 5.8 mph - N/A   Overcast
4:53 PM 35.1 °F 30.1 °F 30.9 °F 85% 30.40 in 10.0 mi North 5.8 mph - N/A   Overcast
5:53 PM 35.1 °F 28.6 °F 30.9 °F 85% 30.40 in 7.0 mi NNE 8.1 mph - N/A   Overcast
6:53 PM 34.0 °F 26.6 °F 30.9 °F 89% 30.40 in 8.0 mi NNE 9.2 mph - N/A   Overcast
7:53 PM 35.1 °F 27.9 °F 30.0 °F 82% 30.38 in 9.0 mi NNE 9.2 mph - N/A   Overcast
8:53 PM 35.1 °F 27.4 °F 30.0 °F 82% 30.38 in 9.0 mi NNE 10.4 mph - N/A   Overcast
9:06 PM 35.6 °F 27.1 °F 30.2 °F 81% 30.31 in 10.0 mi NNE 12.7 mph - N/A   Overcast
9:53 PM 35.1 °F 27.9 °F 30.0 °F 82% 30.37 in 10.0 mi NNE 9.2 mph - N/A   Overcast
10:53 PM 35.1 °F 27.4 °F 30.0 °F 82% 30.33 in 10.0 mi NNE 10.4 mph - N/A   Overcast
11:53 PM 35.1 °F 27.4 °F 30.0 °F 82% 30.31 in 10.0 mi NNE 10.4 mph - N/A   Overcast